Year,Month,Day,Hour,Minute,Value (Times are PST for temperature in C)
2016,01,12,00,00,5.60
2016,01,12,00,01,5.60
2016,01,12,00,02,5.60
2016,01,12,00,03,5.60
2016,01,12,00,04,5.60
2016,01,12,00,05,5.60
2016,01,12,00,06,5.60
2016,01,12,00,07,5.60
2016,01,12,00,08,5.60
2016,01,12,00,09,5.60
2016,01,12,00,10,5.60
2016,01,12,00,11,5.60
2016,01,12,00,12,5.60
2016,01,12,00,13,5.60
2016,01,12,00,14,5.60
2016,01,12,00,15,5.60
2016,01,12,00,16,5.60
2016,01,12,00,17,5.60
2016,01,12,00,18,5.60
2016,01,12,00,19,5.60
2016,01,12,00,20,5.60
2016,01,12,00,21,5.50
2016,01,12,00,22,5.50
2016,01,12,00,23,5.50
2016,01,12,00,24,5.50
2016,01,12,00,25,5.50
2016,01,12,00,26,5.50
2016,01,12,00,27,5.50
2016,01,12,00,28,5.50
2016,01,12,00,29,5.50
2016,01,12,00,30,5.50
2016,01,12,00,31,5.50
2016,01,12,00,32,5.50
2016,01,12,00,33,5.50
2016,01,12,00,34,5.40
2016,01,12,00,35,5.40
2016,01,12,00,36,5.40
2016,01,12,00,37,5.40
2016,01,12,00,38,5.30
2016,01,12,00,39,5.30
2016,01,12,00,40,5.30
2016,01,12,00,41,5.30
2016,01,12,00,42,5.30
2016,01,12,00,43,5.30
2016,01,12,00,44,5.30
2016,01,12,00,45,5.30
2016,01,12,00,46,5.30
2016,01,12,00,47,5.30
2016,01,12,00,48,5.30
2016,01,12,00,49,5.20
2016,01,12,00,50,5.20
2016,01,12,00,51,5.10
2016,01,12,00,52,5.10
2016,01,12,00,53,5.10
2016,01,12,00,54,4.90
2016,01,12,00,55,4.80
2016,01,12,00,56,4.70
2016,01,12,00,57,4.70
2016,01,12,00,58,4.60
2016,01,12,00,59,4.60
2016,01,12,01,00,4.60
2016,01,12,01,01,4.60
2016,01,12,01,02,4.60
2016,01,12,01,03,4.60
2016,01,12,01,04,4.60
2016,01,12,01,05,4.60
2016,01,12,01,06,4.60
2016,01,12,01,07,4.60
2016,01,12,01,08,4.60
2016,01,12,01,09,4.60
2016,01,12,01,10,4.50
2016,01,12,01,11,4.50
2016,01,12,01,12,4.50
2016,01,12,01,13,4.50
2016,01,12,01,14,4.50
2016,01,12,01,15,4.50
2016,01,12,01,16,4.50
2016,01,12,01,17,4.50
2016,01,12,01,18,4.60
2016,01,12,01,19,4.60
2016,01,12,01,20,4.60
2016,01,12,01,21,4.70
2016,01,12,01,22,4.70
2016,01,12,01,23,4.80
2016,01,12,01,24,4.80
2016,01,12,01,25,4.90
2016,01,12,01,26,4.90
2016,01,12,01,27,4.90
2016,01,12,01,28,4.90
2016,01,12,01,29,4.90
2016,01,12,01,30,5.00
2016,01,12,01,31,5.10
2016,01,12,01,32,5.10
2016,01,12,01,33,5.10
2016,01,12,01,34,5.20
2016,01,12,01,35,5.20
2016,01,12,01,36,5.30
2016,01,12,01,37,5.30
2016,01,12,01,38,5.30
2016,01,12,01,39,5.20
2016,01,12,01,40,5.20
2016,01,12,01,41,5.20
2016,01,12,01,42,5.20
2016,01,12,01,43,5.10
2016,01,12,01,44,5.10
2016,01,12,01,45,5.10
2016,01,12,01,46,5.10
2016,01,12,01,47,5.10
2016,01,12,01,48,5.00
2016,01,12,01,49,4.90
2016,01,12,01,50,4.90
2016,01,12,01,51,4.90
2016,01,12,01,52,4.90
2016,01,12,01,53,4.90
2016,01,12,01,54,4.90
2016,01,12,01,55,4.90
2016,01,12,01,56,4.90
2016,01,12,01,57,4.90
2016,01,12,01,58,4.90
2016,01,12,01,59,5.00
2016,01,12,02,00,5.00
2016,01,12,02,01,4.90
2016,01,12,02,02,4.90
2016,01,12,02,03,5.00
2016,01,12,02,04,5.10
2016,01,12,02,05,5.10
2016,01,12,02,06,5.10
2016,01,12,02,07,5.10
2016,01,12,02,08,5.10
2016,01,12,02,09,5.20
2016,01,12,02,10,5.20
2016,01,12,02,11,5.20
2016,01,12,02,12,5.30
2016,01,12,02,13,5.30
2016,01,12,02,14,5.30
2016,01,12,02,15,5.30
2016,01,12,02,16,5.30
2016,01,12,02,17,5.40
2016,01,12,02,18,5.40
2016,01,12,02,19,5.50
2016,01,12,02,20,5.60
2016,01,12,02,21,5.70
2016,01,12,02,22,5.80
2016,01,12,02,23,5.90
2016,01,12,02,24,5.90
2016,01,12,02,25,6.00
2016,01,12,02,26,6.00
2016,01,12,02,27,6.10
2016,01,12,02,28,6.20
2016,01,12,02,29,6.20
2016,01,12,02,30,6.20
2016,01,12,02,31,6.20
2016,01,12,02,32,6.30
2016,01,12,02,33,6.30
2016,01,12,02,34,6.30
2016,01,12,02,35,6.40
2016,01,12,02,36,6.40
2016,01,12,02,37,6.40
2016,01,12,02,38,6.40
2016,01,12,02,39,6.40
2016,01,12,02,40,6.40
2016,01,12,02,41,6.40
2016,01,12,02,42,6.50
2016,01,12,02,43,6.60
2016,01,12,02,44,6.60
2016,01,12,02,45,6.60
2016,01,12,02,46,6.60
2016,01,12,02,47,6.60
2016,01,12,02,48,6.60
2016,01,12,02,49,6.70
2016,01,12,02,50,6.70
2016,01,12,02,51,6.80
2016,01,12,02,52,6.80
2016,01,12,02,53,6.90
2016,01,12,02,54,6.90
2016,01,12,02,55,7.00
2016,01,12,02,56,7.00
2016,01,12,02,57,7.00
2016,01,12,02,58,7.00
2016,01,12,02,59,7.00
2016,01,12,03,00,7.00
2016,01,12,03,01,7.00
2016,01,12,03,02,7.00
2016,01,12,03,03,7.10
2016,01,12,03,04,7.10
2016,01,12,03,05,7.10
2016,01,12,03,06,7.10
2016,01,12,03,07,7.10
2016,01,12,03,08,7.10
2016,01,12,03,09,7.10
2016,01,12,03,10,7.10
2016,01,12,03,11,7.10
2016,01,12,03,12,7.10
2016,01,12,03,13,7.10
2016,01,12,03,14,7.10
2016,01,12,03,15,7.10
2016,01,12,03,16,7.00
2016,01,12,03,17,7.00
2016,01,12,03,18,7.00
2016,01,12,03,19,7.00
2016,01,12,03,20,7.00
2016,01,12,03,21,7.00
2016,01,12,03,22,7.00
2016,01,12,03,23,7.00
2016,01,12,03,24,7.00
2016,01,12,03,25,7.00
2016,01,12,03,26,7.00
2016,01,12,03,27,7.00
2016,01,12,03,28,7.00
2016,01,12,03,29,7.00
2016,01,12,03,30,7.00
2016,01,12,03,31,7.00
2016,01,12,03,32,7.00
2016,01,12,03,33,7.00
2016,01,12,03,34,7.00
2016,01,12,03,35,7.00
2016,01,12,03,36,7.00
2016,01,12,03,37,7.00
2016,01,12,03,38,7.00
2016,01,12,03,39,7.00
2016,01,12,03,40,7.10
2016,01,12,03,41,7.10
2016,01,12,03,42,7.10
2016,01,12,03,43,7.20
2016,01,12,03,44,7.30
2016,01,12,03,45,7.30
2016,01,12,03,46,7.40
2016,01,12,03,47,7.40
2016,01,12,03,48,7.50
2016,01,12,03,49,7.50
2016,01,12,03,50,7.60
2016,01,12,03,51,7.60
2016,01,12,03,52,7.70
2016,01,12,03,53,7.80
2016,01,12,03,54,7.80
2016,01,12,03,55,7.80
2016,01,12,03,56,7.80
2016,01,12,03,57,7.80
2016,01,12,03,58,7.80
2016,01,12,03,59,7.80
2016,01,12,04,00,7.90
2016,01,12,04,01,7.90
2016,01,12,04,02,7.90
2016,01,12,04,03,7.90
2016,01,12,04,04,7.90
2016,01,12,04,05,8.00
2016,01,12,04,06,8.00
2016,01,12,04,07,8.00
2016,01,12,04,08,8.00
2016,01,12,04,09,8.10
2016,01,12,04,10,8.10
2016,01,12,04,11,8.20
2016,01,12,04,12,8.20
2016,01,12,04,13,8.20
2016,01,12,04,14,8.20
2016,01,12,04,15,8.20
2016,01,12,04,16,8.20
2016,01,12,04,17,8.10
2016,01,12,04,18,8.10
2016,01,12,04,19,8.10
2016,01,12,04,20,8.10
2016,01,12,04,21,8.10
2016,01,12,04,22,8.10
2016,01,12,04,23,8.20
2016,01,12,04,24,8.20
2016,01,12,04,25,8.20
2016,01,12,04,26,8.30
2016,01,12,04,27,8.30
2016,01,12,04,28,8.40
2016,01,12,04,29,8.40
2016,01,12,04,30,8.40
2016,01,12,04,31,8.40
2016,01,12,04,32,8.40
2016,01,12,04,33,8.40
2016,01,12,04,34,8.40
2016,01,12,04,35,8.40
2016,01,12,04,36,8.40
2016,01,12,04,37,8.40
2016,01,12,04,38,8.40
2016,01,12,04,39,8.40
2016,01,12,04,40,8.40
2016,01,12,04,41,8.40
2016,01,12,04,42,8.40
2016,01,12,04,43,8.40
2016,01,12,04,44,8.30
2016,01,12,04,45,8.40
2016,01,12,04,46,8.40
2016,01,12,04,47,8.40
2016,01,12,04,48,8.40
2016,01,12,04,49,8.40
2016,01,12,04,50,8.40
2016,01,12,04,51,8.40
2016,01,12,04,52,8.40
2016,01,12,04,53,8.50
2016,01,12,04,54,8.50
2016,01,12,04,55,8.50
2016,01,12,04,56,8.50
2016,01,12,04,57,8.50
2016,01,12,04,58,8.50
2016,01,12,04,59,8.50
2016,01,12,05,00,8.50
2016,01,12,05,01,8.50
2016,01,12,05,02,8.50
2016,01,12,05,03,8.50
2016,01,12,05,04,8.50
2016,01,12,05,05,8.50
2016,01,12,05,06,8.50
2016,01,12,05,07,8.50
2016,01,12,05,08,8.50
2016,01,12,05,09,8.50
2016,01,12,05,10,8.50
2016,01,12,05,11,8.50
2016,01,12,05,12,8.50
2016,01,12,05,13,8.50
2016,01,12,05,14,8.50
2016,01,12,05,15,8.50
2016,01,12,05,16,8.50
2016,01,12,05,17,8.50
2016,01,12,05,18,8.50
2016,01,12,05,19,8.50
2016,01,12,05,20,8.60
2016,01,12,05,21,8.60
2016,01,12,05,22,8.60
2016,01,12,05,23,8.60
2016,01,12,05,24,8.60
2016,01,12,05,25,8.60
2016,01,12,05,26,8.60
2016,01,12,05,27,8.60
2016,01,12,05,28,8.60
2016,01,12,05,29,8.60
2016,01,12,05,30,8.60
2016,01,12,05,31,8.60
2016,01,12,05,32,8.60
2016,01,12,05,33,8.60
2016,01,12,05,34,8.60
2016,01,12,05,35,8.60
2016,01,12,05,36,8.60
2016,01,12,05,37,8.60
2016,01,12,05,38,8.60
2016,01,12,05,39,8.60
2016,01,12,05,40,8.60
2016,01,12,05,41,8.60
2016,01,12,05,42,8.60
2016,01,12,05,43,8.60
2016,01,12,05,44,8.60
2016,01,12,05,45,8.60
2016,01,12,05,46,8.60
2016,01,12,05,47,8.60
2016,01,12,05,48,8.60
2016,01,12,05,49,8.60
2016,01,12,05,50,8.60
2016,01,12,05,51,8.70
2016,01,12,05,52,8.70
2016,01,12,05,53,8.70
2016,01,12,05,54,8.70
2016,01,12,05,55,8.70
2016,01,12,05,56,8.70
2016,01,12,05,57,8.70
2016,01,12,05,58,8.70
2016,01,12,05,59,8.70
2016,01,12,06,00,8.70
2016,01,12,06,01,8.70
2016,01,12,06,02,8.70
2016,01,12,06,03,8.70
2016,01,12,06,04,8.80
2016,01,12,06,05,8.80
2016,01,12,06,06,8.80
2016,01,12,06,07,8.80
2016,01,12,06,08,8.80
2016,01,12,06,09,8.80
2016,01,12,06,10,8.80
2016,01,12,06,11,8.80
2016,01,12,06,12,8.80
2016,01,12,06,13,8.80
2016,01,12,06,14,8.80
2016,01,12,06,15,8.80
2016,01,12,06,16,8.80
2016,01,12,06,17,8.80
2016,01,12,06,18,8.80
2016,01,12,06,19,8.80
2016,01,12,06,20,8.90
2016,01,12,06,21,8.90
2016,01,12,06,22,8.90
2016,01,12,06,23,8.90
2016,01,12,06,24,8.90
2016,01,12,06,25,8.90
2016,01,12,06,26,8.90
2016,01,12,06,27,8.90
2016,01,12,06,28,8.90
2016,01,12,06,29,8.90
2016,01,12,06,30,9.00
2016,01,12,06,31,9.00
2016,01,12,06,32,9.00
2016,01,12,06,33,9.00
2016,01,12,06,34,9.00
2016,01,12,06,35,9.00
2016,01,12,06,36,9.00
2016,01,12,06,37,9.00
2016,01,12,06,38,9.00
2016,01,12,06,39,9.00
2016,01,12,06,40,9.00
2016,01,12,06,41,9.00
2016,01,12,06,42,9.00
2016,01,12,06,43,9.00
2016,01,12,06,44,9.00
2016,01,12,06,45,9.00
2016,01,12,06,46,9.00
2016,01,12,06,47,9.00
2016,01,12,06,48,9.00
2016,01,12,06,49,9.00
2016,01,12,06,50,9.00
2016,01,12,06,51,9.00
2016,01,12,06,52,9.10
2016,01,12,06,53,9.10
2016,01,12,06,54,9.10
2016,01,12,06,55,9.10
2016,01,12,06,56,9.10
2016,01,12,06,57,9.10
2016,01,12,06,58,9.10
2016,01,12,06,59,9.00
2016,01,12,07,00,9.00
2016,01,12,07,01,9.00
2016,01,12,07,02,9.00
2016,01,12,07,03,9.00
2016,01,12,07,04,9.00
2016,01,12,07,05,9.00
2016,01,12,07,06,9.00
2016,01,12,07,07,9.00
2016,01,12,07,08,9.00
2016,01,12,07,09,8.90
2016,01,12,07,10,8.90
2016,01,12,07,11,8.90
2016,01,12,07,12,8.90
2016,01,12,07,13,8.90
2016,01,12,07,14,8.90
2016,01,12,07,15,8.90
2016,01,12,07,16,8.90
2016,01,12,07,17,8.90
2016,01,12,07,18,8.80
2016,01,12,07,19,8.80
2016,01,12,07,20,8.80
2016,01,12,07,21,8.80
2016,01,12,07,22,8.80
2016,01,12,07,23,8.80
2016,01,12,07,24,8.70
2016,01,12,07,25,8.70
2016,01,12,07,26,8.70
2016,01,12,07,27,8.70
2016,01,12,07,28,8.70
2016,01,12,07,29,8.70
2016,01,12,07,30,8.70
2016,01,12,07,31,8.70
2016,01,12,07,32,8.70
2016,01,12,07,33,8.70
2016,01,12,07,34,8.70
2016,01,12,07,35,8.70
2016,01,12,07,36,8.70
2016,01,12,07,37,8.70
2016,01,12,07,38,8.70
2016,01,12,07,39,8.70
2016,01,12,07,40,8.70
2016,01,12,07,41,8.70
2016,01,12,07,42,8.70
2016,01,12,07,43,8.70
2016,01,12,07,44,8.70
2016,01,12,07,45,8.70
2016,01,12,07,46,8.70
2016,01,12,07,47,8.70
2016,01,12,07,48,8.70
2016,01,12,07,49,8.70
2016,01,12,07,50,8.70
2016,01,12,07,51,8.70
2016,01,12,07,52,8.70
2016,01,12,07,53,8.70
2016,01,12,07,54,8.80
2016,01,12,07,55,8.80
2016,01,12,07,56,8.80
2016,01,12,07,57,8.80
2016,01,12,07,58,8.80
2016,01,12,07,59,8.80
2016,01,12,08,00,8.80
2016,01,12,08,01,8.80
2016,01,12,08,02,8.80
2016,01,12,08,03,8.80
2016,01,12,08,04,8.80
2016,01,12,08,05,8.70
2016,01,12,08,06,8.70
2016,01,12,08,07,8.70
2016,01,12,08,08,8.70
2016,01,12,08,09,8.70
2016,01,12,08,10,8.70
2016,01,12,08,11,8.70
2016,01,12,08,12,8.70
2016,01,12,08,13,8.70
2016,01,12,08,14,8.70
2016,01,12,08,15,8.70
2016,01,12,08,16,8.70
2016,01,12,08,17,8.70
2016,01,12,08,18,8.80
2016,01,12,08,19,8.80
2016,01,12,08,20,8.80
2016,01,12,08,21,8.80
2016,01,12,08,22,8.80
2016,01,12,08,23,8.80
2016,01,12,08,24,8.80
2016,01,12,08,25,8.80
2016,01,12,08,26,8.80
2016,01,12,08,27,8.80
2016,01,12,08,28,8.80
2016,01,12,08,29,8.80
2016,01,12,08,30,8.80
2016,01,12,08,31,8.80
2016,01,12,08,32,8.90
2016,01,12,08,33,8.90
2016,01,12,08,34,8.90
2016,01,12,08,35,8.90
2016,01,12,08,36,8.90
2016,01,12,08,37,9.00
2016,01,12,08,38,9.00
2016,01,12,08,39,9.00
2016,01,12,08,40,9.00
2016,01,12,08,41,9.00
2016,01,12,08,42,9.00
2016,01,12,08,43,9.00
2016,01,12,08,44,9.00
2016,01,12,08,45,9.00
2016,01,12,08,46,9.10
2016,01,12,08,47,9.10
2016,01,12,08,48,9.10
2016,01,12,08,49,9.10
2016,01,12,08,50,9.10
2016,01,12,08,51,9.10
2016,01,12,08,52,9.10
2016,01,12,08,53,9.10
2016,01,12,08,54,9.10
2016,01,12,08,55,9.10
2016,01,12,08,56,9.10
2016,01,12,08,57,9.10
2016,01,12,08,58,9.10
2016,01,12,08,59,9.10
2016,01,12,09,00,9.10
2016,01,12,09,01,9.10
2016,01,12,09,02,9.10
2016,01,12,09,03,9.10
2016,01,12,09,04,9.10
2016,01,12,09,05,9.10
2016,01,12,09,06,9.10
2016,01,12,09,07,9.10
2016,01,12,09,08,9.10
2016,01,12,09,09,9.20
2016,01,12,09,10,9.10
2016,01,12,09,11,9.10
2016,01,12,09,12,9.10
2016,01,12,09,13,9.10
2016,01,12,09,14,9.10
2016,01,12,09,15,9.10
2016,01,12,09,16,9.10
2016,01,12,09,17,9.10
2016,01,12,09,18,9.10
2016,01,12,09,19,9.10
2016,01,12,09,20,9.00
2016,01,12,09,21,9.10
2016,01,12,09,22,9.00
2016,01,12,09,23,9.00
2016,01,12,09,24,9.00
2016,01,12,09,25,9.00
2016,01,12,09,26,9.00
2016,01,12,09,27,9.00
2016,01,12,09,28,9.00
2016,01,12,09,29,9.00
2016,01,12,09,30,9.00
2016,01,12,09,31,9.00
2016,01,12,09,32,9.00
2016,01,12,09,33,9.00
2016,01,12,09,34,9.00
2016,01,12,09,35,8.90
2016,01,12,09,36,8.90
2016,01,12,09,37,8.90
2016,01,12,09,38,8.90
2016,01,12,09,39,8.90
2016,01,12,09,40,8.90
2016,01,12,09,41,8.90
2016,01,12,09,42,9.00
2016,01,12,09,43,9.00
2016,01,12,09,44,9.00
2016,01,12,09,45,9.00
2016,01,12,09,46,8.90
2016,01,12,09,47,8.90
2016,01,12,09,48,8.90
2016,01,12,09,49,8.90
2016,01,12,09,50,8.90
2016,01,12,09,51,8.90
2016,01,12,09,52,8.90
2016,01,12,09,53,8.90
2016,01,12,09,54,8.90
2016,01,12,09,55,8.90
2016,01,12,09,56,8.90
2016,01,12,09,57,8.90
2016,01,12,09,58,8.90
2016,01,12,09,59,8.90
2016,01,12,10,00,8.90
2016,01,12,10,01,8.90
2016,01,12,10,02,8.90
2016,01,12,10,03,8.90
2016,01,12,10,04,8.90
2016,01,12,10,05,8.90
2016,01,12,10,06,8.90
2016,01,12,10,07,8.90
2016,01,12,10,08,8.90
2016,01,12,10,09,8.90
2016,01,12,10,10,8.90
2016,01,12,10,11,8.90
2016,01,12,10,12,8.90
2016,01,12,10,13,8.90
2016,01,12,10,14,8.90
2016,01,12,10,15,8.90
2016,01,12,10,16,8.90
2016,01,12,10,17,8.90
2016,01,12,10,18,8.90
2016,01,12,10,19,8.90
2016,01,12,10,20,8.90
2016,01,12,10,21,8.90
2016,01,12,10,22,8.90
2016,01,12,10,23,8.90
2016,01,12,10,24,9.00
2016,01,12,10,25,9.00
2016,01,12,10,26,9.00
2016,01,12,10,27,9.00
2016,01,12,10,28,9.00
2016,01,12,10,29,9.00
2016,01,12,10,30,9.00
2016,01,12,10,31,9.00
2016,01,12,10,32,9.00
2016,01,12,10,33,9.00
2016,01,12,10,34,9.00
2016,01,12,10,35,9.00
2016,01,12,10,36,9.00
2016,01,12,10,37,9.00
2016,01,12,10,38,9.00
2016,01,12,10,39,9.00
2016,01,12,10,40,9.00
2016,01,12,10,41,9.00
2016,01,12,10,42,9.00
2016,01,12,10,43,9.00
2016,01,12,10,44,9.00
2016,01,12,10,45,9.00
2016,01,12,10,46,9.00
2016,01,12,10,47,9.00
2016,01,12,10,48,9.00
2016,01,12,10,49,9.00
2016,01,12,10,50,9.00
2016,01,12,10,51,9.00
2016,01,12,10,52,9.00
2016,01,12,10,53,9.10
2016,01,12,10,54,9.10
2016,01,12,10,55,9.10
2016,01,12,10,56,9.10
2016,01,12,10,57,9.10
2016,01,12,10,58,9.10
2016,01,12,10,59,9.10
2016,01,12,11,00,9.10
2016,01,12,11,01,9.10
2016,01,12,11,02,9.10
2016,01,12,11,03,9.10
2016,01,12,11,04,9.10
2016,01,12,11,05,9.10
2016,01,12,11,06,9.20
2016,01,12,11,07,9.20
2016,01,12,11,08,9.20
2016,01,12,11,09,9.20
2016,01,12,11,10,9.20
2016,01,12,11,11,9.20
2016,01,12,11,12,9.10
2016,01,12,11,13,9.20
2016,01,12,11,14,9.20
2016,01,12,11,15,9.20
2016,01,12,11,16,9.20
2016,01,12,11,17,9.20
2016,01,12,11,18,9.20
2016,01,12,11,19,9.20
2016,01,12,11,20,9.20
2016,01,12,11,21,9.20
2016,01,12,11,22,9.20
2016,01,12,11,23,9.20
2016,01,12,11,24,9.20
2016,01,12,11,25,9.20
2016,01,12,11,26,9.20
2016,01,12,11,27,9.20
2016,01,12,11,28,9.20
2016,01,12,11,29,9.20
2016,01,12,11,30,9.20
2016,01,12,11,31,9.20
2016,01,12,11,32,9.30
2016,01,12,11,33,9.30
2016,01,12,11,34,9.30
2016,01,12,11,35,9.30
2016,01,12,11,36,9.30
2016,01,12,11,37,9.30
2016,01,12,11,38,9.30
2016,01,12,11,39,9.30
2016,01,12,11,40,9.30
2016,01,12,11,41,9.40
2016,01,12,11,42,9.40
2016,01,12,11,43,9.40
2016,01,12,11,44,9.40
2016,01,12,11,45,9.40
2016,01,12,11,46,9.40
2016,01,12,11,47,9.40
2016,01,12,11,48,9.40
2016,01,12,11,49,9.50
2016,01,12,11,50,9.40
2016,01,12,11,51,9.50
2016,01,12,11,52,9.50
2016,01,12,11,53,9.50
2016,01,12,11,54,9.50
2016,01,12,11,55,9.50
2016,01,12,11,56,9.50
2016,01,12,11,57,9.50
2016,01,12,11,58,9.60
2016,01,12,11,59,9.60
2016,01,12,12,00,9.60
2016,01,12,12,01,9.60
2016,01,12,12,02,9.60
2016,01,12,12,03,9.60
2016,01,12,12,04,9.60
2016,01,12,12,05,9.70
2016,01,12,12,06,9.70
2016,01,12,12,07,9.70
2016,01,12,12,08,9.70
2016,01,12,12,09,9.70
2016,01,12,12,10,9.70
2016,01,12,12,11,9.70
2016,01,12,12,12,9.70
2016,01,12,12,13,9.70
2016,01,12,12,14,9.70
2016,01,12,12,15,9.70
2016,01,12,12,16,9.70
2016,01,12,12,17,9.70
2016,01,12,12,18,9.70
2016,01,12,12,19,9.70
2016,01,12,12,20,9.70
2016,01,12,12,21,9.70
2016,01,12,12,22,9.70
2016,01,12,12,23,9.80
2016,01,12,12,24,9.80
2016,01,12,12,25,9.80
2016,01,12,12,26,9.80
2016,01,12,12,27,9.80
2016,01,12,12,28,9.80
2016,01,12,12,29,9.80
2016,01,12,12,30,9.80
2016,01,12,12,31,9.80
2016,01,12,12,32,9.80
2016,01,12,12,33,9.80
2016,01,12,12,34,9.80
2016,01,12,12,35,9.80
2016,01,12,12,36,9.90
2016,01,12,12,37,9.90
2016,01,12,12,38,9.80
2016,01,12,12,39,9.90
2016,01,12,12,40,9.90
2016,01,12,12,41,9.90
2016,01,12,12,42,9.90
2016,01,12,12,43,9.90
2016,01,12,12,44,9.90
2016,01,12,12,45,9.90
2016,01,12,12,46,9.90
2016,01,12,12,47,9.90
2016,01,12,12,48,9.90
2016,01,12,12,49,9.90
2016,01,12,12,50,9.90
2016,01,12,12,51,9.90
2016,01,12,12,52,9.90
2016,01,12,12,53,9.90
2016,01,12,12,54,9.90
2016,01,12,12,55,9.90
2016,01,12,12,56,9.90
2016,01,12,12,57,9.90
2016,01,12,12,58,9.90
2016,01,12,12,59,9.90
2016,01,12,13,00,9.90
2016,01,12,13,01,9.90
2016,01,12,13,02,9.90
2016,01,12,13,03,9.90
2016,01,12,13,04,9.90
2016,01,12,13,05,9.90
2016,01,12,13,06,9.90
2016,01,12,13,07,9.90
2016,01,12,13,08,9.90
2016,01,12,13,09,9.90
2016,01,12,13,10,9.90
2016,01,12,13,11,9.90
2016,01,12,13,12,9.90
2016,01,12,13,13,9.90
2016,01,12,13,14,9.90
2016,01,12,13,15,9.90
2016,01,12,13,16,9.90
2016,01,12,13,17,9.90
2016,01,12,13,18,9.90
2016,01,12,13,19,9.90
2016,01,12,13,20,9.90
2016,01,12,13,21,9.90
2016,01,12,13,22,9.90
2016,01,12,13,23,9.90
2016,01,12,13,24,9.90
2016,01,12,13,25,9.90
2016,01,12,13,26,9.90
2016,01,12,13,27,9.90
2016,01,12,13,28,9.90
2016,01,12,13,29,9.90
2016,01,12,13,30,9.90
2016,01,12,13,31,10.00
2016,01,12,13,32,10.10
2016,01,12,13,33,10.10
2016,01,12,13,34,10.10
2016,01,12,13,35,10.10
2016,01,12,13,36,10.10
2016,01,12,13,37,10.10
2016,01,12,13,38,10.10
2016,01,12,13,39,10.10
2016,01,12,13,40,10.10
2016,01,12,13,41,10.10
2016,01,12,13,42,10.10
2016,01,12,13,43,10.10
2016,01,12,13,44,10.10
2016,01,12,13,45,10.10
2016,01,12,13,46,10.10
2016,01,12,13,47,10.10
2016,01,12,13,48,10.10
2016,01,12,13,49,10.10
2016,01,12,13,50,10.10
2016,01,12,13,51,10.10
2016,01,12,13,52,10.10
2016,01,12,13,53,10.10
2016,01,12,13,54,10.10
2016,01,12,13,55,10.10
2016,01,12,13,56,10.10
2016,01,12,13,57,10.10
2016,01,12,13,58,10.10
2016,01,12,13,59,10.10
2016,01,12,14,00,10.10
2016,01,12,14,01,10.10
2016,01,12,14,02,10.10
2016,01,12,14,03,10.10
2016,01,12,14,04,10.10
2016,01,12,14,05,10.10
2016,01,12,14,06,10.10
2016,01,12,14,07,10.10
2016,01,12,14,08,10.20
2016,01,12,14,09,10.20
2016,01,12,14,10,10.20
2016,01,12,14,11,10.20
2016,01,12,14,12,10.20
2016,01,12,14,13,10.20
2016,01,12,14,14,10.20
2016,01,12,14,15,10.20
2016,01,12,14,16,10.20
2016,01,12,14,17,10.10
2016,01,12,14,18,10.10
2016,01,12,14,19,10.10
2016,01,12,14,20,10.10
2016,01,12,14,21,10.10
2016,01,12,14,22,10.10
2016,01,12,14,23,10.10
2016,01,12,14,24,10.10
2016,01,12,14,25,10.10
2016,01,12,14,26,10.10
2016,01,12,14,27,10.10
2016,01,12,14,28,10.10
2016,01,12,14,29,10.10
2016,01,12,14,30,10.10
2016,01,12,14,31,10.10
2016,01,12,14,32,10.10
2016,01,12,14,33,10.10
2016,01,12,14,34,10.10
2016,01,12,14,35,10.10
2016,01,12,14,36,10.10
2016,01,12,14,37,10.10
2016,01,12,14,38,10.10
2016,01,12,14,39,10.10
2016,01,12,14,40,10.10
2016,01,12,14,41,10.10
2016,01,12,14,42,10.10
2016,01,12,14,43,10.10
2016,01,12,14,44,10.10
2016,01,12,14,45,10.10
2016,01,12,14,46,10.10
2016,01,12,14,47,10.10
2016,01,12,14,48,10.10
2016,01,12,14,49,10.10
2016,01,12,14,50,10.00
2016,01,12,14,51,10.10
2016,01,12,14,52,10.00
2016,01,12,14,53,10.00
2016,01,12,14,54,10.00
2016,01,12,14,55,9.90
2016,01,12,14,56,9.90
2016,01,12,14,57,9.90
2016,01,12,14,58,9.90
2016,01,12,14,59,9.90
2016,01,12,15,00,9.90
2016,01,12,15,01,9.90
2016,01,12,15,02,9.90
2016,01,12,15,03,9.90
2016,01,12,15,04,9.90
2016,01,12,15,05,9.90
2016,01,12,15,06,9.90
2016,01,12,15,07,9.90
2016,01,12,15,08,9.90
2016,01,12,15,09,9.90
2016,01,12,15,10,9.90
2016,01,12,15,11,9.90
2016,01,12,15,12,9.90
2016,01,12,15,13,9.90
2016,01,12,15,14,9.90
2016,01,12,15,15,9.90
2016,01,12,15,16,9.90
2016,01,12,15,17,9.90
2016,01,12,15,18,9.90
2016,01,12,15,19,9.90
2016,01,12,15,20,9.90
2016,01,12,15,21,9.90
2016,01,12,15,22,9.90
2016,01,12,15,23,9.90
2016,01,12,15,24,9.90
2016,01,12,15,25,9.90
2016,01,12,15,26,9.90
2016,01,12,15,27,9.90
2016,01,12,15,28,9.90
2016,01,12,15,29,9.90
2016,01,12,15,30,9.90
2016,01,12,15,31,9.90
2016,01,12,15,32,9.90
2016,01,12,15,33,9.90
2016,01,12,15,34,9.90
2016,01,12,15,35,9.90
2016,01,12,15,36,9.90
2016,01,12,15,37,9.90
2016,01,12,15,38,9.90
2016,01,12,15,39,9.90
2016,01,12,15,40,9.90
2016,01,12,15,41,9.90
2016,01,12,15,42,9.90
2016,01,12,15,43,9.90
2016,01,12,15,44,9.90
2016,01,12,15,45,9.90
2016,01,12,15,46,9.90
2016,01,12,15,47,9.90
2016,01,12,15,48,9.90
2016,01,12,15,49,9.90
2016,01,12,15,50,9.90
2016,01,12,15,51,9.90
2016,01,12,15,52,9.90
2016,01,12,15,53,9.90
2016,01,12,15,54,9.90
2016,01,12,15,55,9.90
2016,01,12,15,56,9.90
2016,01,12,15,57,9.90
2016,01,12,15,58,9.90
2016,01,12,15,59,9.90
2016,01,12,16,00,9.90
2016,01,12,16,01,9.80
2016,01,12,16,02,9.80
2016,01,12,16,03,9.80
2016,01,12,16,04,9.80
2016,01,12,16,05,9.80
2016,01,12,16,06,9.80
2016,01,12,16,07,9.80
2016,01,12,16,08,9.80
2016,01,12,16,09,9.80
2016,01,12,16,10,9.70
2016,01,12,16,11,9.70
2016,01,12,16,12,9.70
2016,01,12,16,13,9.80
2016,01,12,16,14,9.70
2016,01,12,16,15,9.70
2016,01,12,16,16,9.70
2016,01,12,16,17,9.70
2016,01,12,16,18,9.70
2016,01,12,16,19,9.70
2016,01,12,16,20,9.70
2016,01,12,16,21,9.70
2016,01,12,16,22,9.70
2016,01,12,16,23,9.70
2016,01,12,16,24,9.70
2016,01,12,16,25,9.70
2016,01,12,16,26,9.70
2016,01,12,16,27,9.70
2016,01,12,16,28,9.70
2016,01,12,16,29,9.70
2016,01,12,16,30,9.70
2016,01,12,16,31,9.70
2016,01,12,16,32,9.70
2016,01,12,16,33,9.70
2016,01,12,16,34,9.70
2016,01,12,16,35,9.70
2016,01,12,16,36,9.70
2016,01,12,16,37,9.70
2016,01,12,16,38,9.70
2016,01,12,16,39,9.70
2016,01,12,16,40,9.70
2016,01,12,16,41,9.70
2016,01,12,16,42,9.70
2016,01,12,16,43,9.70
2016,01,12,16,44,9.70
2016,01,12,16,45,9.70
2016,01,12,16,46,9.70
2016,01,12,16,47,9.70
2016,01,12,16,48,9.60
2016,01,12,16,49,9.60
2016,01,12,16,50,9.60
2016,01,12,16,51,9.60
2016,01,12,16,52,9.60
2016,01,12,16,53,9.60
2016,01,12,16,54,9.60
2016,01,12,16,55,9.60
2016,01,12,16,56,9.60
2016,01,12,16,57,9.60
2016,01,12,16,58,9.60
2016,01,12,16,59,9.60
2016,01,12,17,00,9.60
2016,01,12,17,01,9.50
2016,01,12,17,02,9.50
2016,01,12,17,03,9.50
2016,01,12,17,04,9.50
2016,01,12,17,05,9.50
2016,01,12,17,06,9.50
2016,01,12,17,07,9.50
2016,01,12,17,08,9.50
2016,01,12,17,09,9.50
2016,01,12,17,10,9.50
2016,01,12,17,11,9.50
2016,01,12,17,12,9.50
2016,01,12,17,13,9.40
2016,01,12,17,14,9.40
2016,01,12,17,15,9.40
2016,01,12,17,16,9.40
2016,01,12,17,17,9.40
2016,01,12,17,18,9.40
2016,01,12,17,19,9.40
2016,01,12,17,20,9.40
2016,01,12,17,21,9.40
2016,01,12,17,22,9.40
2016,01,12,17,23,9.40
2016,01,12,17,24,9.30
2016,01,12,17,25,9.30
2016,01,12,17,26,9.30
2016,01,12,17,27,9.30
2016,01,12,17,28,9.30
2016,01,12,17,29,9.30
2016,01,12,17,30,9.30
2016,01,12,17,31,9.30
2016,01,12,17,32,9.20
2016,01,12,17,33,9.20
2016,01,12,17,34,9.20
2016,01,12,17,35,9.20
2016,01,12,17,36,9.20
2016,01,12,17,37,9.20
2016,01,12,17,38,9.20
2016,01,12,17,39,9.20
2016,01,12,17,40,9.20
2016,01,12,17,41,9.20
2016,01,12,17,42,9.20
2016,01,12,17,43,9.20
2016,01,12,17,44,9.20
2016,01,12,17,45,9.20
2016,01,12,17,46,9.20
2016,01,12,17,47,9.20
2016,01,12,17,48,9.20
2016,01,12,17,49,9.20
2016,01,12,17,50,9.20
2016,01,12,17,51,9.20
2016,01,12,17,52,9.20
2016,01,12,17,53,9.20
2016,01,12,17,54,9.20
2016,01,12,17,55,9.10
2016,01,12,17,56,9.10
2016,01,12,17,57,9.10
2016,01,12,17,58,9.10
2016,01,12,17,59,9.10
2016,01,12,18,00,9.10
2016,01,12,18,01,9.10
2016,01,12,18,02,9.10